Tracking 25734 objects as of 26-May-2022
HD Live streaming from Space Station
objects crossing your sky now

SL-12 DEB

Track SL-12 DEB now!
10-day predictions


NORAD ID: 44871
Int'l Code: 2010-041AL
Perigee: 629.7 km
Apogee: 19,083.5 km
Inclination: 65.4 °
Period: 342.9 minutes
Semi major axis: 16227 km
RCS: Unknown
Launch date: September 2, 2010
Source: Commonwealth of Independent States (former USSR) (CIS)
Launch site: TYURATAM MISSILE AND SPACE COMPLEX (TTMTR)

Note: This is SATELLITE DEBRIS
aabbcc
Your satellite tracking list
Your tracking list is empty




NASA's NSSDC Master Catalog

Two Line Element Set (TLE):
1 44871U 10041AL  22144.43096692 -.00000125  00000-0 -50490-3 0  9993
2 44871  65.4418 304.6820 5685921 344.9531   3.3734  4.19973579 41371
Source of the keplerian elements: AFSPC